[[{"header":{"parameterUnit":"m.s-1","parameterCategory":1,"la1":30.2991,"la2":30.254,"lo1":-89.0895,"lo2":-89.0444,"dy":0.0017,"dx":0.0017,"nx":28,"ny":28,"refTime":"2025-05-15T21:00:00:Z","depth":0,"parameterNumber":2,"parameterNumberName":"U-component_of_WINDS"},"data":[0,0,0,0,0,0,0,0,0,0,0,0,0,0,0,0,0,0,0,0,0,0,0,0,0,0,0,0,0,0,0,0,0,0,0,0,0,0,0,0,0,0,0,0,0,0,0,0,0,0,0,0,0,0,0,0,0,0,2.8578,2.8579,0,2.8674,2.8675,2.8676,2.8624,2.8622,2.8619,2.8617,2.8715,2.872,2.8725,0,0,0,0,0,0,0,0,0,0,0,0,0,2.8348,2.8352,2.8578,2.8579,2.858,2.8674,2.8675,2.8677,2.8625,2.8622,2.8618,2.8615,2.8714,2.872,2.8726,0,0,0,0,0,0,0,0,0,0,0,0,0,2.8446,2.8354,2.8577,2.8566,2.8565,2.8674,2.8675,2.8677,2.8626,2.8622,2.8618,2.8614,2.8712,2.8719,2.8727,2.8852,0,0,2.875,2.8753,0,0,0,0,0,0,0,0,2.8441,2.8455,2.8566,2.8567,2.8567,2.8633,2.863,2.8736,2.8627,2.8603,2.8617,2.8612,2.8691,2.87,2.8727,2.8857,2.8861,2.8751,2.8755,2.8758,2.8761,0,0,0,0,0,0,0,2.8434,2.845,2.8616,2.8568,2.8568,2.8555,2.8565,2.865,2.8668,2.8605,2.8601,2.8613,2.8691,2.872,2.8729,2.8862,2.875,2.8757,2.8762,2.8765,2.9098,2.9102,0,0,0,0,0,0,2.8428,2.8445,2.8613,2.8619,2.8493,2.8562,2.8573,2.8616,2.8667,2.8671,2.8616,2.861,2.8709,2.872,2.8732,2.8881,2.8758,2.8765,2.877,2.9094,2.9099,2.9104,0,0,0,0,0,0,2.8423,2.8444,2.8609,2.8531,2.8551,2.8571,2.8619,2.862,2.8649,2.8676,2.8678,2.8643,2.8706,2.8721,2.8822,2.8884,2.8769,2.8776,2.9089,2.9095,2.9101,2.9181,0,0,0,0,0,0,2.8417,2.8442,2.849,2.8533,2.8555,2.8698,2.8623,2.8625,2.8662,2.8655,2.8701,2.8705,2.8704,2.8811,2.883,2.8892,2.8782,2.9083,2.9092,2.9099,2.9173,2.9189,2.9203,0,0,0,0,0,2.8409,2.8509,2.8493,2.8513,2.8616,2.8701,2.8714,2.8711,2.8667,2.8715,2.8732,2.8704,2.8874,2.8822,2.8843,2.8908,2.9079,2.9089,2.9099,2.9166,2.9186,2.9203,0,0,0,0,0,0,2.8473,2.8514,2.8497,2.8614,2.8655,2.8693,2.8753,2.8733,2.8787,2.8778,2.8772,2.8783,2.8887,2.8908,2.8849,2.9031,2.897,2.8984,2.9014,2.9033,2.9048,2.904,2.8788,0,0,0,0,0,2.8501,2.8568,2.86,2.8699,2.8721,2.8734,2.8771,2.8765,2.8807,2.8824,2.8848,2.889,2.8953,2.8994,2.9054,2.9176,2.9184,2.9231,2.9246,2.9258,2.927,2.9335,2.9355,2.9136,2.9135,2.9135,0,0,2.8559,2.859,2.8632,2.8713,2.8744,2.8812,2.8749,2.8824,2.8874,2.8835,2.8931,2.8951,2.8997,2.9109,2.9159,2.9129,2.9333,2.9271,2.928,2.9286,2.9347,2.9368,2.9386,2.9142,2.9141,2.914,0,0,2.87,2.873,2.8816,2.8848,2.8896,2.8903,2.8924,2.8966,2.8977,2.9073,2.9045,2.9105,2.9214,2.9247,2.9279,2.9431,2.9406,2.9451,2.953,2.9593,2.961,2.9625,2.9678,2.9698,2.9463,2.9463,2.9463,0,2.8766,2.8868,2.8863,2.894,2.8976,2.8944,2.903,2.9062,2.9126,2.9152,2.9117,2.9252,2.9281,2.9399,2.9436,2.9463,2.9486,2.9445,2.9608,2.9623,2.9638,2.9688,2.9708,2.9468,2.9468,2.9467,2.9467,0,2.8946,2.9017,2.9081,2.9143,2.9187,2.9268,2.9275,2.932,2.931,2.9321,2.9419,2.9453,2.9518,2.9546,2.9537,2.9663,2.9642,2.9609,2.9546,2.9664,2.9711,2.973,2.9475,2.9474,2.9472,2.9471,0,0,2.9129,2.9188,2.9211,2.9239,2.9289,2.9343,2.9423,2.9487,2.9524,2.957,2.9636,2.9728,2.9697,2.9732,2.9727,2.9783,2.99,2.9742,2.9743,2.9769,3.0038,3.0062,3.0085,2.9884,2.9888,2.9891,3.0034,0,2.9271,2.9411,2.9408,2.9538,2.9602,2.9573,2.9642,2.968,2.9693,2.9749,2.9763,2.9828,2.9783,2.9804,2.9858,2.9874,2.9954,2.9864,2.9944,2.9947,2.9932,3.011,3.0136,3.0269,3.0053,3.0056,3.0058,0,2.9456,2.9508,2.9643,2.9683,2.971,2.9772,2.9829,2.9884,2.9926,2.9932,2.9971,2.9957,3.0037,2.9974,3.0084,3.0023,3.0056,3.0069,3.0074,3.008,3.0009,3.0119,3.0312,3.0331,3.0087,3.0085,3.0083,0,2.9574,2.9678,2.9772,2.9796,2.9845,2.989,2.9912,2.995,2.9988,3.0038,3.0063,3.0122,3.0154,3.02,3.0202,3.0156,3.0312,3.0249,3.0317,3.0317,3.0351,3.0348,3.055,3.0375,3.0374,3.0374,3.0374,0,2.9733,2.9816,2.9825,2.9883,2.9975,2.9972,3.0064,3.0082,3.0116,3.0176,3.0155,3.0211,3.0211,3.0269,3.0271,3.0361,3.0376,3.0382,3.0381,3.0383,3.0382,3.0403,3.0393,3.0379,3.0378,3.0377,3.0376,0,2.9879,2.9889,2.9989,3.0027,3.0039,3.0105,3.0137,3.0192,3.0203,3.0279,3.0297,3.0314,3.038,3.0387,3.0465,3.0467,3.0574,3.0565,3.056,3.0558,3.0625,3.0618,3.0846,3.0875,3.0683,3.0684,3.0686,0,2.9979,3.0043,3.0088,3.0126,3.0151,3.0214,3.0253,3.0252,3.0293,3.0345,3.0393,3.0458,3.0509,3.0617,3.0636,3.0695,3.0686,3.0762,3.0694,3.0694,3.0685,3.068,3.0686,3.0774,3.0776,3.0778,3.0779,0,3.0155,3.0156,3.0212,3.0271,3.0317,3.0363,3.0406,3.0439,3.0443,3.049,3.0558,3.0598,3.0677,3.0741,3.0799,3.0821,3.0801,3.08,3.0819,3.0821,3.0815,3.0817,3.0594,3.0795,3.0793,3.0792,3.0791,3.0791,3.028,3.0334,3.0374,3.0438,3.047,3.051,3.0563,3.058,3.0637,3.0701,3.0697,3.0772,3.0812,3.0887,3.0914,3.0972,3.0946,3.0974,3.098,3.0987,3.0993,3.0807,3.0983,3.0982,3.0982,3.0981,3.0981,0,3.0452,3.0477,3.0535,3.0596,3.0645,3.0622,3.0668,3.0711,3.0777,3.0816,3.0867,3.0945,3.1006,3.103,3.109,3.1132,3.1124,3.1148,3.1143,3.1149,3.1013,3.099,3.1153,3.1153,3.1153,3.1153,3.1153,3.1153,3.0548,3.0639,3.0645,3.0751,3.0775,3.0848,3.0876,3.0912,3.0943,3.1031,3.1082,3.1097,3.113,3.1192,3.1247,3.1252,3.1275,3.1302,3.1303,3.1176,3.1158,3.1142,3.112,3.1308,3.1308,3.1434,3.1435,3.1436]},{"header":{"parameterUnit":"m.s-1","parameterCategory":1,"la1":30.2991,"la2":30.254,"lo1":-89.0895,"lo2":-89.0444,"dy":0.0017,"dx":0.0017,"nx":28,"ny":28,"refTime":"2025-05-15T21:00:00:Z","depth":0,"parameterNumber":3,"parameterNumberName":"V-component_of_WINDS"},"data":[0,0,0,0,0,0,0,0,0,0,0,0,0,0,0,0,0,0,0,0,0,0,0,0,0,0,0,0,0,0,0,0,0,0,0,0,0,0,0,0,0,0,0,0,0,0,0,0,0,0,0,0,0,0,0,0,0,0,4.9315,4.9316,0,4.9387,4.9388,4.9389,4.933,4.9327,4.9325,4.9322,4.9393,4.9397,4.9401,0,0,0,0,0,0,0,0,0,0,0,0,0,4.9121,4.9125,4.9315,4.9316,4.9317,4.9387,4.9388,4.9389,4.933,4.9327,4.9324,4.9321,4.9391,4.9396,4.9401,0,0,0,0,0,0,0,0,0,0,0,0,0,4.92,4.9126,4.9315,4.9296,4.9295,4.9387,4.9388,4.939,4.9331,4.9327,4.9323,4.932,4.939,4.9396,4.9402,4.9515,0,0,4.9421,4.9424,0,0,0,0,0,0,0,0,4.9196,4.9207,4.9298,4.9298,4.9297,4.9346,4.9345,4.9432,4.9332,4.9317,4.9322,4.9318,4.938,4.9387,4.9408,4.9518,4.9521,4.9422,4.9425,4.9428,4.943,0,0,0,0,0,0,0,4.919,4.9204,4.9344,4.9299,4.9299,4.9282,4.9289,4.9361,4.9368,4.9318,4.9314,4.9324,4.9379,4.9402,4.9409,4.9522,4.9421,4.9427,4.9431,4.9433,4.9727,4.9731,0,0,0,0,0,0,4.9187,4.92,4.9341,4.9346,4.9236,4.9289,4.9297,4.9334,4.9367,4.9369,4.9327,4.9321,4.9393,4.9402,4.9412,4.9546,4.9428,4.9434,4.9437,4.9723,4.9728,4.9733,0,0,0,0,0,0,4.9184,4.9201,4.9338,4.9272,4.9288,4.9296,4.9338,4.9337,4.9361,4.9374,4.9374,4.935,4.9391,4.9403,4.949,4.9547,4.9437,4.9442,4.9718,4.9725,4.973,4.9816,0,0,0,0,0,0,4.9178,4.92,4.9244,4.9273,4.9292,4.9417,4.9342,4.9341,4.9372,4.9365,4.9396,4.9397,4.9389,4.9481,4.9496,4.9554,4.9447,4.9713,4.9721,4.9728,4.9808,4.9824,4.9838,0,0,0,0,0,4.9171,4.9265,4.9247,4.9264,4.9348,4.9421,4.9431,4.9421,4.9377,4.9421,4.9429,4.9396,4.9539,4.949,4.9507,4.9568,4.971,4.9719,4.9728,4.9801,4.9821,4.9837,0,0,0,0,0,0,4.9241,4.9268,4.9249,4.9355,4.9386,4.9411,4.9466,4.9442,4.9485,4.9476,4.946,4.9467,4.9559,4.9572,4.9517,4.9678,4.9617,4.963,4.9667,4.9686,4.97,4.9695,4.9453,0,0,0,0,0,4.9269,4.9328,4.9347,4.9439,4.9455,4.9458,4.9489,4.9478,4.951,4.9522,4.9537,4.9567,4.9618,4.9652,4.97,4.9809,4.9814,4.9859,4.9874,4.9886,4.9897,4.9954,4.9974,4.9762,4.9762,4.9762,0,0,4.9327,4.9349,4.9387,4.9453,4.9476,4.9535,4.947,4.9535,4.9578,4.9532,4.9615,4.9627,4.9659,4.9757,4.9801,4.9771,4.9957,4.9897,4.9907,4.9912,4.9965,4.9986,5.0003,4.9769,4.9767,4.9766,0,0,4.9463,4.9486,4.9564,4.9589,4.9625,4.9625,4.9644,4.9672,4.9679,4.9762,4.9728,4.9778,4.9867,4.9891,4.9915,5.0059,5.003,5.0074,5.0153,5.0209,5.0225,5.024,5.029,5.0309,5.0086,5.0086,5.0086,0,4.953,4.962,4.9607,4.9676,4.9705,4.9666,4.9744,4.9767,4.9817,4.9837,4.9803,4.9913,4.9932,5.0035,5.007,5.009,5.011,5.0071,5.0224,5.0239,5.0252,5.03,5.0319,5.0091,5.009,5.009,5.0089,0,4.97,4.9762,4.9821,4.9871,4.9906,4.9979,4.9976,5.0013,4.9999,5.0003,5.0087,5.0108,5.0159,5.0183,5.0169,5.0283,5.0263,5.0227,5.0165,5.0278,5.0322,5.0341,5.0098,5.0097,5.0095,5.0094,0,0,4.9883,4.9925,4.9946,4.9968,5.0004,5.0051,5.012,5.0172,5.0204,5.0238,5.0295,5.0371,5.0337,5.0364,5.0352,5.0401,5.0512,5.0359,5.0359,5.0386,5.0638,5.0665,5.0687,5.0493,5.0496,5.0499,5.0635,0,5.0021,5.0144,5.0134,5.025,5.0307,5.0269,5.033,5.0358,5.0363,5.041,5.0414,5.0468,5.042,5.0436,5.0482,5.0489,5.0562,5.0479,5.0545,5.0547,5.0538,5.071,5.0739,5.0867,5.0652,5.0655,5.0657,0,5.0198,5.024,5.0362,5.0388,5.0411,5.0466,5.0511,5.0557,5.0587,5.0587,5.0617,5.0596,5.0664,5.0601,5.0694,5.0637,5.0663,5.067,5.0674,5.068,5.061,5.072,5.0907,5.0926,5.0685,5.0683,5.0681,0,5.0319,5.0405,5.0489,5.0509,5.0542,5.0581,5.0596,5.0622,5.0653,5.0692,5.0711,5.0757,5.0782,5.0817,5.0808,5.0763,5.0903,5.0839,5.0903,5.0904,5.0935,5.0933,5.1129,5.0952,5.0952,5.0951,5.0951,0,5.0473,5.0549,5.0544,5.0596,5.0679,5.0666,5.0748,5.0758,5.0781,5.0833,5.0802,5.0851,5.0837,5.0884,5.0877,5.0954,5.0966,5.0967,5.0964,5.097,5.097,5.0987,5.0978,5.0956,5.0955,5.0954,5.0953,0,5.0623,5.0623,5.0712,5.0736,5.0743,5.0803,5.0823,5.087,5.0872,5.0938,5.0952,5.0955,5.1009,5.1004,5.1064,5.1059,5.1155,5.1142,5.1146,5.1143,5.1208,5.1202,5.1421,5.1449,5.1254,5.1256,5.1258,0,5.0722,5.078,5.081,5.0843,5.0861,5.0914,5.0946,5.0933,5.0967,5.1004,5.1047,5.1098,5.1139,5.1227,5.1233,5.1278,5.1266,5.1339,5.1272,5.1276,5.1266,5.1263,5.1268,5.1353,5.1355,5.1357,5.1358,0,5.0897,5.0894,5.0941,5.0989,5.1027,5.1063,5.1096,5.1124,5.1114,5.1153,5.1209,5.124,5.1302,5.1353,5.1396,5.1409,5.1382,5.1379,5.1396,5.1403,5.1403,5.1403,5.1182,5.1374,5.1373,5.1372,5.1371,5.137,5.1025,5.1074,5.1102,5.1155,5.1179,5.121,5.1255,5.1263,5.131,5.136,5.1349,5.1411,5.1437,5.1492,5.1509,5.1556,5.1529,5.1555,5.1561,5.1567,5.1575,5.1395,5.1564,5.1563,5.1563,5.1563,5.1562,0,5.1198,5.1214,5.1263,5.131,5.1351,5.1323,5.1357,5.1393,5.1449,5.1476,5.1516,5.1579,5.1628,5.1638,5.1684,5.1719,5.1708,5.1732,5.1729,5.1732,5.1597,5.1577,5.174,5.174,5.174,5.174,5.174,5.174,5.1293,5.1375,5.1374,5.1466,5.1481,5.1543,5.1565,5.1592,5.1613,5.1686,5.1726,5.1733,5.1752,5.1799,5.1842,5.1843,5.1861,5.189,5.1886,5.176,5.1742,5.1725,5.1706,5.1894,5.1894,5.2018,5.2019,5.202]}]]